N39YL KDEN-KCOS

Flight info

Callsign N39YL
Flight time N/A
Altitude 14000
Route FQF V95 HOHUM V81 BRK DBRY5
Aircraft BE9L/L-VGDW/C

Departure

Time 2026-05-07 19:42
Airport Denver International Airport (KDEN)

Arrival

Time N/A
Airport City of Colorado Springs Municipal Airport (KCOS)
Time Latitude Longitude Altitude Speed Heading
2026-05-07 19:12 39.83882 -104.66515 5437 ft 0 kts 360°
2026-05-07 19:37 39.83907 -104.66495 5437 ft 9 kts 68°
2026-05-07 19:37 39.83976 -104.66410 5437 ft 17 kts 44°
2026-05-07 19:38 39.83980 -104.66260 5437 ft 23 kts 165°
2026-05-07 19:38 39.83807 -104.66257 5437 ft 26 kts 180°
2026-05-07 19:38 39.83616 -104.66256 5437 ft 28 kts 178°
2026-05-07 19:38 39.83414 -104.66262 5437 ft 29 kts 179°
2026-05-07 19:39 39.83205 -104.66264 5437 ft 30 kts 183°
2026-05-07 19:39 39.83083 -104.66267 5437 ft 9 kts 177°
2026-05-07 19:39 39.82988 -104.66267 5437 ft 17 kts 182°
2026-05-07 19:39 39.82859 -104.66252 5437 ft 10 kts 133°
2026-05-07 19:40 39.82844 -104.66184 5437 ft 0 kts 89°
2026-05-07 19:40 39.82844 -104.66179 5437 ft 4 kts 89°
2026-05-07 19:40 39.82845 -104.66088 5437 ft 14 kts 79°
2026-05-07 19:41 39.82892 -104.66056 5437 ft 0 kts 359°
2026-05-07 19:42 39.82929 -104.66055 5437 ft 30 kts
2026-05-07 19:42 39.83410 -104.66050 5442 ft 98 kts 357°
2026-05-07 19:42 39.84103 -104.65994 5770 ft 102 kts 343°
2026-05-07 19:42 39.84671 -104.66458 6043 ft 99 kts 298°
2026-05-07 19:43 39.84726 -104.67347 6310 ft 108 kts 254°
2026-05-07 19:43 39.84153 -104.68076 6573 ft 124 kts 219°
2026-05-07 19:43 39.83378 -104.68610 6824 ft 128 kts 217°
2026-05-07 19:43 39.82586 -104.69154 7083 ft 130 kts 217°
2026-05-07 19:44 39.81800 -104.69734 7334 ft 131 kts 217°
2026-05-07 19:44 39.80999 -104.70329 7588 ft 133 kts 217°
2026-05-07 19:44 39.80196 -104.70914 7842 ft 133 kts 218°
2026-05-07 19:44 39.79396 -104.71501 8094 ft 133 kts 217°
2026-05-07 19:45 39.78578 -104.72102 8349 ft 134 kts 217°
2026-05-07 19:45 39.77779 -104.72694 8596 ft 134 kts 217°
2026-05-07 19:45 39.76965 -104.73299 8848 ft 134 kts 218°
2026-05-07 19:45 39.76160 -104.73885 9096 ft 134 kts 217°
2026-05-07 19:46 39.75350 -104.74477 9346 ft 134 kts 217°